TimeMDT,TemperatureF,Dew PointF,Humidity,Sea Level PressureIn,VisibilityMPH,Wind Direction,Wind SpeedMPH,Gust SpeedMPH,PrecipitationIn,Events,Conditions,WindDirDegrees,DateUTC
12:53 AM,45.0,19.9,37,29.92,10.0,Calm,Calm,-,N/A,,Clear,0,2013-04-05 06:53:00
1:53 AM,39.9,19.0,43,29.91,10.0,Calm,Calm,-,N/A,,Clear,0,2013-04-05 07:53:00
2:53 AM,39.9,19.9,45,29.89,10.0,North,5.8,-,N/A,,Clear,350,2013-04-05 08:53:00
3:53 AM,39.0,18.0,43,29.89,10.0,SSW,3.5,-,N/A,,Clear,210,2013-04-05 09:53:00
4:53 AM,36.0,18.0,48,29.88,10.0,WNW,3.5,-,N/A,,Clear,290,2013-04-05 10:53:00
5:53 AM,37.0,19.0,48,29.88,10.0,NNW,4.6,-,N/A,,Clear,330,2013-04-05 11:53:00
6:53 AM,39.0,21.9,50,29.87,10.0,North,5.8,-,N/A,,Clear,350,2013-04-05 12:53:00
7:53 AM,41.0,21.9,47,29.88,10.0,WNW,6.9,-,N/A,,Clear,300,2013-04-05 13:53:00
8:53 AM,45.0,24.1,44,29.89,10.0,SW,8.1,-,N/A,,Clear,220,2013-04-05 14:53:00
9:53 AM,48.9,23.0,36,29.86,10.0,Calm,Calm,-,N/A,,Clear,0,2013-04-05 15:53:00
10:53 AM,54.0,23.0,30,29.83,10.0,Calm,Calm,-,N/A,,Clear,0,2013-04-05 16:53:00
11:53 AM,63.0,23.0,22,29.78,10.0,South,3.5,-,N/A,,Clear,180,2013-04-05 17:53:00
12:53 PM,64.0,21.9,20,29.73,10.0,ESE,10.4,-,N/A,,Clear,120,2013-04-05 18:53:00
1:53 PM,72.0,18.0,13,29.68,10.0,East,8.1,-,N/A,,Clear,100,2013-04-05 19:53:00
2:53 PM,75.9,10.9,8,29.62,10.0,SSE,5.8,-,N/A,,Clear,160,2013-04-05 20:53:00
3:53 PM,78.1,6.1,6,29.58,10.0,WSW,6.9,17.3,N/A,,Clear,240,2013-04-05 21:53:00
4:53 PM,75.9,8.1,7,29.58,10.0,West,9.2,-,N/A,,Clear,280,2013-04-05 22:53:00
5:53 PM,75.9,17.1,11,29.57,10.0,West,20.7,-,N/A,,Clear,260,2013-04-05 23:53:00
6:53 PM,72.0,19.0,13,29.60,1.5,West,38.0,50.6,N/A,,Haze,280,2013-04-06 00:53:00
7:04 PM,71.6,19.4,14,29.71,4.0,SW,10.4,41.4,N/A,,Haze,220,2013-04-06 01:04:00
7:53 PM,68.0,21.0,17,29.61,10.0,West,15.0,-,N/A,,Clear,270,2013-04-06 01:53:00
8:53 PM,64.9,23.0,20,29.64,10.0,West,16.1,-,N/A,,Clear,270,2013-04-06 02:53:00
9:53 PM,63.0,24.1,23,29.67,10.0,WNW,17.3,25.3,N/A,,Clear,290,2013-04-06 03:53:00
10:53 PM,61.0,25.0,25,29.68,10.0,WNW,15.0,-,N/A,,Clear,290,2013-04-06 04:53:00
11:53 PM,59.0,28.0,31,29.69,10.0,NW,17.3,26.5,N/A,,Clear,310,2013-04-06 05:53:00